Zurück zum Katalog

COSMOS 2273

AktivMilitärPO
NORAD 23004·PAYLOAD·🇷🇺 Russia

Gestartet Feb 12, 1994 von Plesetsk Cosmodrome

Loading…

Nächste Überflüge (nächste 24 Stunden)

TLE

AktuellSource: Space-Track

Epoche: Sep 14, 2026, 00:29 UTC

1 23004U 94011F   26257.02017058  .00000005  00000-0 -29571-4 0  9993
2 23004  82.5692 258.2403 0005131   2.7481  23.9321 12.62922336501966

Verfolge COSMOS 2273 in Echtzeit mit AllMySat

Download on the App Store